This is the latest recevied weather packets stored in our database for station/object N2MLB-WX. If no packets are shown the sender has not sent any weather packets the latest 10 day(s).
| Time | Temp. | Humidity | Pressure | Rain* | Wind** | Luminosity | Snow |
|---|---|---|---|---|---|---|---|
| 1777724839 | 7.22° C | 57% | 1011 hPa | 0 mm | - | 42 W/m² | - |
| 1777724539 | 6.67° C | 60% | 1011 hPa | 0 mm | - | 40 W/m² | - |
| 1777724241 | 6.67° C | 59% | 1011 hPa | 0 mm | - | 40 W/m² | - |
| 1777723940 | 6.11° C | 58% | 1011 hPa | 0 mm | - | 36 W/m² | - |
| 1777723640 | 7.22° C | 57% | 1011 hPa | 0 mm | - | 31 W/m² | - |
| 1777723339 | 6.67° C | 61% | 1011 hPa | 0 mm | - | 28 W/m² | - |
| 1777723040 | 6.67° C | 64% | 1011 hPa | 0 mm | - | 27 W/m² | - |
| 1777722739 | 6.11° C | 64% | 1011 hPa | 0 mm | - | 25 W/m² | - |
| 1777722440 | 5° C | 67% | 1011 hPa | 0 mm | - | 22 W/m² | - |
| 1777722141 | 4.44° C | 69% | 1011 hPa | 0 mm | - | 14 W/m² | - |
| 1777721840 | 4.44° C | 71% | 1011 hPa | 0 mm | - | 13 W/m² | - |
| 1777721540 | 3.89° C | 71% | 1011 hPa | 0 mm | - | 12 W/m² | - |
| 1777721239 | 3.33° C | 74% | 1011 hPa | 0 mm | - | 10 W/m² | - |
| 1777720940 | 3.33° C | 79% | 1011 hPa | 0 mm | - | 10 W/m² | - |
| 1777720641 | 3.33° C | 79% | 1011 hPa | 0 mm | - | 10 W/m² | - |
| 1777720340 | 2.78° C | 81% | 1011 hPa | 0 mm | - | 10 W/m² | - |
| 1777720040 | 2.78° C | 82% | 1011 hPa | 0 mm | - | 10 W/m² | - |
| 1777719739 | 2.22° C | 84% | 1011 hPa | 0 mm | - | 8 W/m² | - |
| 1777719440 | 1.67° C | 88% | 1011 hPa | 0 mm | - | 7 W/m² | - |
| 1777719142 | 1.11° C | 89% | 1011 hPa | 0 mm | - | 5 W/m² | - |
| 1777718839 | 0.56° C | 89% | 1011 hPa | 0 mm | - | 5 W/m² | - |
| 1777718540 | 0.56° C | 89% | 1011 hPa | 0 mm | - | 4 W/m² | - |
| 1777718240 | 0.56° C | 90% | 1011 hPa | 0 mm | - | 3 W/m² | - |
| 1777717940 | 0.56° C | 90% | 1011 hPa | 0 mm | - | 3 W/m² | - |
| 1777717641 | 0.56° C | 90% | 1011 hPa | 0 mm | - | 2 W/m² | - |
* Rain latest hour (hover to see other rain measurements)
** Current wind speed in m/s (hover to see current wind gust speed)